Rochester, NY

10:50 AM EST on December 08, 2016 (GMT -0500)
Greater Rochester International

Weather History for KROC - August, 2013

Change the Weather History Date:

Saturday, August 31, 2013

  Actual Average Record
Temperature  
Mean Temperature 76 °F 67 °F  
Max Temperature 82 °F 77 °F 96 °F (1881)
Min Temperature 69 °F 57 °F 43 °F (1976)
Degree Days  
Heating Degree Days 0 2  
Month to date heating degree days 10 22  
Since 1 June heating degree days 76 102  
Since 1 July heating degree days 18 34  
Cooling Degree Days 11 4  
Month to date cooling degree days 152 155  
Year to date cooling degree days 591 484  
Since 1 June cooling degree days 520 454  
Growing Degree Days 26 (Base 50)    
Moisture  
Dew Point 69 °F    
Average Humidity 80    
Maximum Humidity 97    
Minimum Humidity 63    
Precipitation  
Precipitation 0.10 in 0.11 in 2.32 in (2005)
Month to date precipitation 2.70 3.47  
Year to date precipitation 25.21 22.60  
Snow  
Snow 0.00 in 0.00 in 0.00 in ()
Month to date snowfall 0.0 0.0  
Since 1 June snowfall 0.0 0.0  
Since 1 July snowfall 0.0 0.0  
Snow Depth 0.00 in    
Sea Level Pressure  
Sea Level Pressure 29.78 in    
Wind  
Wind Speed 6 mph (WNW)    
Max Wind Speed 16 mph    
Max Gust Speed 20 mph    
Visibility 9 miles    
Events Rain , Thunderstorm    
T = Trace of Precipitation, MM = Missing Value Source: NWS Daily Summary

Daily Weather History Graph

Daily Weather History Graph

Search for Another Location

Airport or City:

Trip Planner

Search our weather history database for the weather conditions in past years. The results will help you decide how hot, cold, wet, or windy it might be!

Date:

Astronomy

Aug. 31, 2013 Rise Set
Actual Time 6:34 AM EDT 7:46 PM EDT
Civil Twilight 6:04 AM EDT 8:16 PM EDT
Nautical Twilight 5:29 AM EDT 8:51 PM EDT
Astronomical Twilight 4:52 AM EDT 9:28 PM EDT
Moon 1:56 AM EDT (8/31) 4:48 PM EDT (8/31)
Length of Visible Light 14h 11m
Length of Day
13h 12m
Waning Crescent, 21% of the Moon is Illuminated
Aug 31
Waning Crescent
Sep 5
New
Sep 12
First Quarter
Sep 19
Full
Sep 26
Last Quarter

Hourly Weather History & Observations

Time (EDT) Temp. Heat Index Dew Point Humidity Pressure Visibility Wind Dir Wind Speed Gust Speed Precip Events Conditions
12:41 AM 73.4 °F - 69.8 °F 88% 29.75 in 10.0 mi Calm Calm - 0.00 in Rain , Thunderstorm Light Thunderstorms and Rain
12:54 AM 73.0 °F - 68.0 °F 84% 29.77 in 10.0 mi North 10.4 mph - 0.00 in Rain , Thunderstorm Light Thunderstorms and Rain
1:32 AM 73.4 °F - 69.8 °F 88% 29.75 in 6.0 mi Calm Calm - 0.10 in Rain Light Rain
1:54 AM 73.0 °F - 70.0 °F 90% 29.74 in 7.0 mi South 5.8 mph - 0.10 in   Overcast
2:54 AM 72.0 °F - 70.0 °F 93% 29.73 in 6.0 mi Calm Calm - N/A   Mostly Cloudy
3:54 AM 73.0 °F - 70.0 °F 90% 29.73 in 9.0 mi Calm Calm - N/A   Overcast
4:54 AM 73.0 °F - 70.0 °F 90% 29.74 in 8.0 mi SW 4.6 mph - N/A   Overcast
5:23 AM 73.4 °F - 69.8 °F 88% 29.74 in 8.0 mi WSW 3.5 mph - N/A   Overcast
5:54 AM 73.9 °F - 69.1 °F 85% 29.73 in 9.0 mi SW 3.5 mph - N/A   Overcast
6:54 AM 73.0 °F - 69.1 °F 87% 29.75 in 8.0 mi WSW 3.5 mph - N/A   Overcast
7:54 AM 73.9 °F - 69.1 °F 85% 29.76 in 7.0 mi West 4.6 mph - N/A   Overcast
8:54 AM 75.0 °F - 70.0 °F 84% 29.77 in 7.0 mi WSW 5.8 mph - N/A   Overcast
9:27 AM 75.2 °F - 69.8 °F 83% 29.77 in 8.0 mi West 5.8 mph - 0.00 in   Mostly Cloudy
9:54 AM 77.0 °F - 71.1 °F 82% 29.76 in 8.0 mi West 9.2 mph - 0.00 in   Mostly Cloudy
10:54 AM 78.1 °F - 70.0 °F 76% 29.78 in 10.0 mi WNW 8.1 mph - N/A   Mostly Cloudy
11:54 AM 80.1 °F 82.7 °F 68.0 °F 67% 29.78 in 10.0 mi West 15.0 mph 19.6 mph N/A   Mostly Cloudy
12:54 PM 78.1 °F - 69.1 °F 74% 29.78 in 10.0 mi NNW 10.4 mph - N/A   Mostly Cloudy
1:54 PM 82.0 °F 84.9 °F 68.0 °F 62% 29.78 in 10.0 mi West 10.4 mph - N/A   Mostly Cloudy
2:54 PM 80.1 °F 83.6 °F 71.1 °F 74% 29.78 in 10.0 mi North 8.1 mph - N/A   Mostly Cloudy
3:54 PM 78.1 °F - 70.0 °F 76% 29.78 in 10.0 mi NNW 10.4 mph - N/A   Mostly Cloudy
4:24 PM 77.0 °F - 69.8 °F 78% 29.78 in 10.0 mi North 13.8 mph - N/A   Mostly Cloudy
4:54 PM 78.1 °F - 69.1 °F 74% 29.79 in 10.0 mi North 11.5 mph - N/A   Mostly Cloudy
5:54 PM 73.9 °F - 68.0 °F 82% 29.81 in 10.0 mi NNE 10.4 mph - N/A   Mostly Cloudy
6:54 PM 73.0 °F - 66.9 °F 81% 29.81 in 10.0 mi North 9.2 mph - N/A   Mostly Cloudy
7:54 PM 73.0 °F - 66.9 °F 81% 29.82 in 10.0 mi North 8.1 mph - N/A   Overcast
8:54 PM 71.1 °F - 66.9 °F 87% 29.84 in 10.0 mi NE 4.6 mph - N/A   Overcast
9:54 PM 70.0 °F - 66.9 °F 90% 29.86 in 10.0 mi Calm Calm - N/A   Overcast
10:54 PM 70.0 °F - 66.9 °F 90% 29.87 in 10.0 mi Calm Calm - N/A   Overcast
11:54 PM 70.0 °F - 68.0 °F 93% 29.86 in 10.0 mi Calm Calm - N/A   Overcast